Terug naar catalogus

FENGYUN 1C DEB

ActiefPO
NORAD 30521·DEBRIS·🇨🇳 China

Gelanceerd May 10, 1999 vanaf Taiyuan Satellite Launch Center

Loading…

Volgende Passages (komende 24 uur)

TLE

VersSource: Space-Track

Epoch: Sep 14, 2026, 10:01 UTC

1 30521U 99025AJK 26257.41798203  .00002049  00000-0  38936-3 0  9999
2 30521  99.0237  60.9517 0133655 124.5052 236.8851 14.59848689 36007

Volg FENGYUN 1C DEB in realtime met AllMySat

Download on the App Store